Weather History for Fairbanks, AK

Change the Weather History Date:

Friday, October 1, 2010

  Actual Average Record
Temperature  
Mean Temperature 47 °F 36 °F  
Max Temperature 59 °F 45 °F 72 °F (2003)
Min Temperature 35 °F 28 °F 12 °F (1914)
Degree Days  
Heating Degree Days 18 29  
Month to date heating degree days 18 29  
Since 1 July heating degree days 817 1023  
Cooling Degree Days 0 0  
Month to date cooling degree days 0 0  
Year to date cooling degree days 66 61  
Moisture  
Dew Point 34 °F    
Average Humidity 63    
Maximum Humidity 83    
Minimum Humidity 39    
Precipitation  
Precipitation 0.01 in 0.03 in 0.44 in (1959)
Month to date precipitation 0.01 0.03  
Year to date precipitation 7.93 8.70  
Snow  
Snow 0.00 in 0.20 in 2.40 in (1916)
Month to date snowfall 0.2  
Since 1 July snowfall 0.0 2.0  
Since 1 September snowfall 0.0 2.0  
Snow Depth 0.00 in    
Sea Level Pressure  
Sea Level Pressure 29.31 in    
Wind  
Wind Speed 6 mph (NE)    
Max Wind Speed 10 mph    
Max Gust Speed -    
Visibility 10 miles    
Events Rain    
T = Trace of Precipitation, MM = Missing Value Source: NWS Daily Summary

Daily Weather History Graph

Daily Weather History Graph

Search for Another Location

Airport:

Trip Planner

Search our weather history database for the weather conditions in past years. The results will help you decide how hot, cold, wet, or windy it might be!

Date:

Astronomy

Oct. 01, 2010 Rise Set
Actual Time 8:01 AM AKDT 7:18 PM AKDT
Civil Twilight 7:12 AM AKDT 8:07 PM AKDT
Nautical Twilight 6:15 AM AKDT 9:04 PM AKDT
Astronomical Twilight 5:12 AM AKDT 10:07 PM AKDT
Moon 11:28 PM AKDT (10/1) 6:08 PM AKDT (10/1)
Length of Visible Light 12h 54m
Length of Day
11h 17m
Last Quarter, 43% of the Moon is Illuminated
Oct 1
Last Quarter
Oct 7
New
Oct 14
First Quarter
Oct 22
Full
Oct 30
Last Quarter

Hourly Weather History & Observations

Time (AKDT) Temp. Windchill Dew Point Humidity Pressure Visibility Wind Dir Wind Speed Gust Speed Precip Events Conditions
12:53 AM 39.9 °F 37.8 °F 30.9 °F 70% 29.56 in 10.0 mi ENE 3.5 mph - N/A   Mostly Cloudy
1:53 AM 39.0 °F 32.8 °F 30.0 °F 70% 29.55 in 10.0 mi NE 9.2 mph - N/A   Mostly Cloudy
2:53 AM 39.0 °F 35.7 °F 30.9 °F 73% 29.52 in 10.0 mi NNE 4.6 mph - N/A   Mostly Cloudy
3:53 AM 39.0 °F 35.7 °F 30.9 °F 73% 29.51 in 10.0 mi NE 4.6 mph - N/A   Mostly Cloudy
4:53 AM 39.9 °F 35.1 °F 30.0 °F 68% 29.49 in 10.0 mi NE 6.9 mph - N/A   Mostly Cloudy
5:53 AM 37.0 °F 31.0 °F 30.0 °F 76% 29.47 in 10.0 mi NNE 8.1 mph - N/A   Mostly Cloudy
6:53 AM 37.9 °F 34.4 °F 30.9 °F 76% 29.45 in 10.0 mi NE 4.6 mph - N/A   Mostly Cloudy
7:53 AM 39.9 °F 35.8 °F 34.0 °F 79% 29.42 in 10.0 mi NE 5.8 mph - 0.00 in Rain Light Rain
8:53 AM 42.1 °F 37.7 °F 33.1 °F 70% 29.40 in 10.0 mi NE 6.9 mph - 0.00 in   Overcast
9:53 AM 44.1 °F 40.1 °F 34.0 °F 68% 29.38 in 10.0 mi NNE 6.9 mph - N/A   Overcast
10:53 AM 46.0 °F 43.1 °F 35.1 °F 66% 29.35 in 10.0 mi NNE 5.8 mph - N/A   Overcast
11:53 AM 46.9 °F - 35.1 °F 63% 29.32 in 10.0 mi NNE 5.8 mph - N/A   Overcast
12:53 PM 51.1 °F - 36.0 °F 56% 29.29 in 10.0 mi NE 4.6 mph - N/A   Overcast
1:53 PM 55.9 °F - 34.0 °F 44% 29.25 in 10.0 mi ENE 8.1 mph - N/A   Overcast
2:53 PM 57.9 °F - 33.1 °F 39% 29.21 in 10.0 mi ENE 10.4 mph - N/A   Overcast
3:53 PM 57.0 °F - 33.1 °F 40% 29.17 in 10.0 mi ENE 8.1 mph - N/A   Overcast
4:53 PM 55.9 °F - 35.1 °F 45% 29.14 in 10.0 mi ENE 4.6 mph - N/A   Overcast
5:53 PM 55.9 °F - 33.1 °F 42% 29.12 in 10.0 mi ENE 6.9 mph - N/A   Overcast
6:53 PM 54.0 °F - 33.1 °F 45% 29.12 in 10.0 mi Calm Calm - N/A   Overcast
7:53 PM 53.1 °F - 33.1 °F 47% 29.14 in 10.0 mi East 3.5 mph - N/A   Overcast
8:53 PM 46.9 °F - 37.9 °F 71% 29.16 in 10.0 mi Calm Calm - 0.00 in Rain Light Rain
9:53 PM 46.9 °F - 39.0 °F 74% 29.15 in 10.0 mi NNE 3.5 mph - 0.01 in Rain Light Rain
10:53 PM 46.9 °F - 41.0 °F 80% 29.14 in 10.0 mi NNE 8.1 mph - 0.00 in Rain Light Rain
11:53 PM 46.9 °F - 42.1 °F 83% 29.10 in 10.0 mi NNE 9.2 mph - 0.00 in   Overcast